Year,Month,Day,Hour,Minute,Value (Times are PST for windgust in km/hr)
2017,05,23,00,00,3.20
2017,05,23,00,01,3.20
2017,05,23,00,02,1.60
2017,05,23,00,03,1.60
2017,05,23,00,04,4.80
2017,05,23,00,05,3.20
2017,05,23,00,06,3.20
2017,05,23,00,07,1.60
2017,05,23,00,08,1.60
2017,05,23,00,09,1.60
2017,05,23,00,10,1.60
2017,05,23,00,11,3.20
2017,05,23,00,12,3.20
2017,05,23,00,13,3.20
2017,05,23,00,14,3.20
2017,05,23,00,15,3.20
2017,05,23,00,16,3.20
2017,05,23,00,18,3.20
2017,05,23,00,19,3.20
2017,05,23,00,20,3.20
2017,05,23,00,21,3.20
2017,05,23,00,22,3.20
2017,05,23,00,30,1.60
2017,05,23,00,31,1.60
2017,05,23,00,32,1.60
2017,05,23,00,33,1.60
2017,05,23,00,34,4.80
2017,05,23,00,35,4.80
2017,05,23,00,36,4.80
2017,05,23,00,37,6.40
2017,05,23,00,38,6.40
2017,05,23,00,39,3.20
2017,05,23,00,40,3.20
2017,05,23,00,41,4.80
2017,05,23,00,42,4.80
2017,05,23,00,43,4.80
2017,05,23,00,44,3.20
2017,05,23,00,45,3.20
2017,05,23,00,46,3.20
2017,05,23,00,47,4.80
2017,05,23,00,48,3.20
2017,05,23,00,49,1.60
2017,05,23,00,50,3.20
2017,05,23,00,51,4.80
2017,05,23,00,52,3.20
2017,05,23,00,53,3.20
2017,05,23,00,54,6.40
2017,05,23,00,55,6.40
2017,05,23,00,56,6.40
2017,05,23,00,57,6.40
2017,05,23,00,58,6.40
2017,05,23,00,59,4.80
2017,05,23,01,00,6.40
2017,05,23,01,01,4.80
2017,05,23,01,02,6.40
2017,05,23,01,03,6.40
2017,05,23,01,04,6.40
2017,05,23,01,05,4.80
2017,05,23,01,06,3.20
2017,05,23,01,07,6.40
2017,05,23,01,08,4.80
2017,05,23,01,09,4.80
2017,05,23,01,10,6.40
2017,05,23,01,11,4.80
2017,05,23,01,12,6.40
2017,05,23,01,13,4.80
2017,05,23,01,14,8.10
2017,05,23,01,15,6.40
2017,05,23,01,16,4.80
2017,05,23,01,17,3.20
2017,05,23,01,18,4.80
2017,05,23,01,19,3.20
2017,05,23,01,20,3.20
2017,05,23,01,21,3.20
2017,05,23,01,22,3.20
2017,05,23,01,23,4.80
2017,05,23,01,24,6.40
2017,05,23,01,25,6.40
2017,05,23,01,26,6.40
2017,05,23,01,27,4.80
2017,05,23,01,28,4.80
2017,05,23,01,29,3.20
2017,05,23,01,30,6.40
2017,05,23,01,31,8.10
2017,05,23,01,32,6.40
2017,05,23,01,33,4.80
2017,05,23,01,34,6.40
2017,05,23,01,35,4.80
2017,05,23,01,36,3.20
2017,05,23,01,37,6.40
2017,05,23,01,38,4.80
2017,05,23,01,39,4.80
2017,05,23,01,40,6.40
2017,05,23,01,41,3.20
2017,05,23,01,42,3.20
2017,05,23,01,43,3.20
2017,05,23,01,44,3.20
2017,05,23,01,45,1.60
2017,05,23,01,46,1.60
2017,05,23,01,49,3.20
2017,05,23,01,50,3.20
2017,05,23,01,51,3.20
2017,05,23,01,52,1.60
2017,05,23,01,58,3.20
2017,05,23,01,59,3.20
2017,05,23,02,08,3.20
2017,05,23,02,09,3.20
2017,05,23,02,10,3.20
2017,05,23,02,11,3.20
2017,05,23,02,12,3.20
2017,05,23,02,13,3.20
2017,05,23,02,14,3.20
2017,05,23,02,15,1.60
2017,05,23,02,16,1.60
2017,05,23,02,17,1.60
2017,05,23,02,18,3.20
2017,05,23,02,19,1.60
2017,05,23,02,20,3.20
2017,05,23,02,21,3.20
2017,05,23,02,22,3.20
2017,05,23,02,23,1.60
2017,05,23,02,32,3.20
2017,05,23,02,33,11.30
2017,05,23,02,34,8.10
2017,05,23,02,35,6.40
2017,05,23,02,36,3.20
2017,05,23,02,38,1.60
2017,05,23,02,39,3.20
2017,05,23,02,40,1.60
2017,05,23,02,49,4.80
2017,05,23,02,50,4.80
2017,05,23,02,51,3.20
2017,05,23,02,52,1.60
2017,05,23,02,53,3.20
2017,05,23,02,54,8.10
2017,05,23,02,55,4.80
2017,05,23,02,56,6.40
2017,05,23,02,57,1.60
2017,05,23,02,58,1.60
2017,05,23,03,00,1.60
2017,05,23,03,01,1.60
2017,05,23,03,02,3.20
2017,05,23,03,03,4.80
2017,05,23,03,04,6.40
2017,05,23,03,05,9.60
2017,05,23,03,06,8.10
2017,05,23,03,07,6.40
2017,05,23,03,08,6.40
2017,05,23,03,09,4.80
2017,05,23,03,10,6.40
2017,05,23,03,11,4.80
2017,05,23,03,12,4.80
2017,05,23,03,13,6.40
2017,05,23,03,14,4.80
2017,05,23,03,15,4.80
2017,05,23,03,16,1.60
2017,05,23,03,17,3.20
2017,05,23,03,18,1.60
2017,05,23,03,20,1.60
2017,05,23,03,22,3.20
2017,05,23,03,23,3.20
2017,05,23,03,24,6.40
2017,05,23,03,25,6.40
2017,05,23,03,26,4.80
2017,05,23,03,27,4.80
2017,05,23,03,28,4.80
2017,05,23,03,29,4.80
2017,05,23,03,30,3.20
2017,05,23,03,31,1.60
2017,05,23,03,35,3.20
2017,05,23,03,36,3.20
2017,05,23,03,37,4.80
2017,05,23,03,38,6.40
2017,05,23,03,39,4.80
2017,05,23,03,40,4.80
2017,05,23,03,41,4.80
2017,05,23,03,42,4.80
2017,05,23,03,43,6.40
2017,05,23,03,44,4.80
2017,05,23,03,45,6.40
2017,05,23,03,46,8.10
2017,05,23,03,47,8.10
2017,05,23,03,48,9.60
2017,05,23,03,49,8.10
2017,05,23,03,50,8.10
2017,05,23,03,51,6.40
2017,05,23,03,52,6.40
2017,05,23,03,53,4.80
2017,05,23,03,54,6.40
2017,05,23,03,55,8.10
2017,05,23,03,56,8.10
2017,05,23,03,57,6.40
2017,05,23,03,58,6.40
2017,05,23,03,59,6.40
2017,05,23,04,00,4.80
2017,05,23,04,01,6.40
2017,05,23,04,02,6.40
2017,05,23,04,03,8.10
2017,05,23,04,04,4.80
2017,05,23,04,05,6.40
2017,05,23,04,06,6.40
2017,05,23,04,07,8.10
2017,05,23,04,08,8.10
2017,05,23,04,09,6.40
2017,05,23,04,10,6.40
2017,05,23,04,11,6.40
2017,05,23,04,12,6.40
2017,05,23,04,13,6.40
2017,05,23,04,14,9.60
2017,05,23,04,15,11.30
2017,05,23,04,16,8.10
2017,05,23,04,17,6.40
2017,05,23,04,18,4.80
2017,05,23,04,19,6.40
2017,05,23,04,20,8.10
2017,05,23,04,21,8.10
2017,05,23,04,22,6.40
2017,05,23,04,23,4.80
2017,05,23,04,24,6.40
2017,05,23,04,25,6.40
2017,05,23,04,26,8.10
2017,05,23,04,27,8.10
2017,05,23,04,28,3.20
2017,05,23,04,29,3.20
2017,05,23,04,30,3.20
2017,05,23,04,31,3.20
2017,05,23,04,32,4.80
2017,05,23,04,33,6.40
2017,05,23,04,34,6.40
2017,05,23,04,35,4.80
2017,05,23,04,36,3.20
2017,05,23,04,37,3.20
2017,05,23,04,38,3.20
2017,05,23,04,39,1.60
2017,05,23,04,43,1.60
2017,05,23,04,54,1.60
2017,05,23,04,55,3.20
2017,05,23,04,56,3.20
2017,05,23,04,57,3.20
2017,05,23,04,58,3.20
2017,05,23,04,59,3.20
2017,05,23,05,02,1.60
2017,05,23,05,03,3.20
2017,05,23,05,04,3.20
2017,05,23,05,05,1.60
2017,05,23,05,07,1.60
2017,05,23,05,08,3.20
2017,05,23,05,09,4.80
2017,05,23,05,10,3.20
2017,05,23,05,11,3.20
2017,05,23,05,12,3.20
2017,05,23,05,13,3.20
2017,05,23,05,14,1.60
2017,05,23,05,15,1.60
2017,05,23,05,16,1.60
2017,05,23,05,18,3.20
2017,05,23,05,19,3.20
2017,05,23,05,20,4.80
2017,05,23,05,21,3.20
2017,05,23,05,22,3.20
2017,05,23,05,23,3.20
2017,05,23,05,24,3.20
2017,05,23,05,25,3.20
2017,05,23,05,26,1.60
2017,05,23,05,27,1.60
2017,05,23,05,28,1.60
2017,05,23,05,34,1.60
2017,05,23,05,35,3.20
2017,05,23,05,36,3.20
2017,05,23,05,37,3.20
2017,05,23,05,38,3.20
2017,05,23,05,39,3.20
2017,05,23,05,40,3.20
2017,05,23,05,41,3.20
2017,05,23,05,42,3.20
2017,05,23,05,43,3.20
2017,05,23,05,44,1.60
2017,05,23,05,52,1.60
2017,05,23,06,13,3.20
2017,05,23,06,14,3.20
2017,05,23,06,17,1.60
2017,05,23,06,18,3.20
2017,05,23,06,19,1.60
2017,05,23,06,22,1.60
2017,05,23,06,35,1.60
2017,05,23,06,36,1.60
2017,05,23,06,47,3.20
2017,05,23,06,48,1.60
2017,05,23,06,49,1.60
2017,05,23,07,11,3.20
2017,05,23,07,12,4.80
2017,05,23,07,13,4.80
2017,05,23,07,14,4.80
2017,05,23,07,15,3.20
2017,05,23,07,16,3.20
2017,05,23,07,17,4.80
2017,05,23,07,18,3.20
2017,05,23,07,19,3.20
2017,05,23,07,20,6.40
2017,05,23,07,21,4.80
2017,05,23,07,22,4.80
2017,05,23,07,23,4.80
2017,05,23,07,24,4.80
2017,05,23,07,25,4.80
2017,05,23,07,26,4.80
2017,05,23,07,27,4.80
2017,05,23,07,28,4.80
2017,05,23,07,29,6.40
2017,05,23,07,30,4.80
2017,05,23,07,31,4.80
2017,05,23,07,32,4.80
2017,05,23,07,33,6.40
2017,05,23,07,34,8.10
2017,05,23,07,35,4.80
2017,05,23,07,36,4.80
2017,05,23,07,37,9.60
2017,05,23,07,38,9.60
2017,05,23,07,39,11.30
2017,05,23,07,40,14.50
2017,05,23,07,41,9.60
2017,05,23,07,42,8.10
2017,05,23,07,43,6.40
2017,05,23,07,44,8.10
2017,05,23,07,45,8.10
2017,05,23,07,46,8.10
2017,05,23,07,47,9.60
2017,05,23,07,48,11.30
2017,05,23,07,49,8.10
2017,05,23,07,50,8.10
2017,05,23,07,51,6.40
2017,05,23,07,52,8.10
2017,05,23,07,53,6.40
2017,05,23,07,54,8.10
2017,05,23,07,55,6.40
2017,05,23,07,56,4.80
2017,05,23,07,57,3.20
2017,05,23,07,58,3.20
2017,05,23,07,59,11.30
2017,05,23,08,00,9.60
2017,05,23,08,01,12.90
2017,05,23,08,02,14.50
2017,05,23,08,03,14.50
2017,05,23,08,04,14.50
2017,05,23,08,05,14.50
2017,05,23,08,06,9.60
2017,05,23,08,07,8.10
2017,05,23,08,08,14.50
2017,05,23,08,09,9.60
2017,05,23,08,10,8.10
2017,05,23,08,11,11.30
2017,05,23,08,12,9.60
2017,05,23,08,13,11.30
2017,05,23,08,14,14.50
2017,05,23,08,15,14.50
2017,05,23,08,16,14.50
2017,05,23,08,17,17.70
2017,05,23,08,18,14.50
2017,05,23,08,19,11.30
2017,05,23,08,20,8.10
2017,05,23,08,21,9.60
2017,05,23,08,22,8.10
2017,05,23,08,23,11.30
2017,05,23,08,24,9.60
2017,05,23,08,25,19.30
2017,05,23,08,26,9.60
2017,05,23,08,27,14.50
2017,05,23,08,28,19.30
2017,05,23,08,29,12.90
2017,05,23,08,30,8.10
2017,05,23,08,31,9.60
2017,05,23,08,32,8.10
2017,05,23,08,33,9.60
2017,05,23,08,34,11.30
2017,05,23,08,35,6.40
2017,05,23,08,36,8.10
2017,05,23,08,37,9.60
2017,05,23,08,38,6.40
2017,05,23,08,39,14.50
2017,05,23,08,40,16.10
2017,05,23,08,41,9.60
2017,05,23,08,42,11.30
2017,05,23,08,43,8.10
2017,05,23,08,44,6.40
2017,05,23,08,45,4.80
2017,05,23,08,46,4.80
2017,05,23,08,47,6.40
2017,05,23,08,48,6.40
2017,05,23,08,49,1.60
2017,05,23,08,50,6.40
2017,05,23,08,51,6.40
2017,05,23,08,52,6.40
2017,05,23,08,53,6.40
2017,05,23,08,54,4.80
2017,05,23,08,55,1.60
2017,05,23,08,56,3.20
2017,05,23,08,57,4.80
2017,05,23,08,58,1.60
2017,05,23,08,59,8.10
2017,05,23,09,00,6.40
2017,05,23,09,01,6.40
2017,05,23,09,02,6.40
2017,05,23,09,03,1.60
2017,05,23,09,04,3.20
2017,05,23,09,05,6.40
2017,05,23,09,06,4.80
2017,05,23,09,07,6.40
2017,05,23,09,08,4.80
2017,05,23,09,09,4.80
2017,05,23,09,10,6.40
2017,05,23,09,11,6.40
2017,05,23,09,12,6.40
2017,05,23,09,13,4.80
2017,05,23,09,14,4.80
2017,05,23,09,15,6.40
2017,05,23,09,16,4.80
2017,05,23,09,17,4.80
2017,05,23,09,18,6.40
2017,05,23,09,19,9.60
2017,05,23,09,20,8.10
2017,05,23,09,21,4.80
2017,05,23,09,22,3.20
2017,05,23,09,23,3.20
2017,05,23,09,24,1.60
2017,05,23,09,26,6.40
2017,05,23,09,27,8.10
2017,05,23,09,28,4.80
2017,05,23,09,29,6.40
2017,05,23,09,30,4.80
2017,05,23,09,31,3.20
2017,05,23,09,32,1.60
2017,05,23,09,33,1.60
2017,05,23,09,34,6.40
2017,05,23,09,35,4.80
2017,05,23,09,36,8.10
2017,05,23,09,37,8.10
2017,05,23,09,38,6.40
2017,05,23,09,39,9.60
2017,05,23,09,40,8.10
2017,05,23,09,41,8.10
2017,05,23,09,42,9.60
2017,05,23,09,43,9.60
2017,05,23,09,44,9.60
2017,05,23,09,45,3.20
2017,05,23,09,46,6.40
2017,05,23,09,47,9.60
2017,05,23,09,48,9.60
2017,05,23,09,49,11.30
2017,05,23,09,50,6.40
2017,05,23,09,51,6.40
2017,05,23,09,52,8.10
2017,05,23,09,53,8.10
2017,05,23,09,54,8.10
2017,05,23,09,55,11.30
2017,05,23,09,56,11.30
2017,05,23,09,57,11.30
2017,05,23,09,58,9.60
2017,05,23,09,59,9.60
2017,05,23,10,00,8.10
2017,05,23,10,01,9.60
2017,05,23,10,02,14.50
2017,05,23,10,03,11.30
2017,05,23,10,04,9.60
2017,05,23,10,05,12.90
2017,05,23,10,06,11.30
2017,05,23,10,07,8.10
2017,05,23,10,08,11.30
2017,05,23,10,09,9.60
2017,05,23,10,10,6.40
2017,05,23,10,11,9.60
2017,05,23,10,12,9.60
2017,05,23,10,13,8.10
2017,05,23,10,14,8.10
2017,05,23,10,15,4.80
2017,05,23,10,16,6.40
2017,05,23,10,17,4.80
2017,05,23,10,18,4.80
2017,05,23,10,19,8.10
2017,05,23,10,20,6.40
2017,05,23,10,21,6.40
2017,05,23,10,22,6.40
2017,05,23,10,23,6.40
2017,05,23,10,24,6.40
2017,05,23,10,25,6.40
2017,05,23,10,26,4.80
2017,05,23,10,27,3.20
2017,05,23,10,28,6.40
2017,05,23,10,29,6.40
2017,05,23,10,30,11.30
2017,05,23,10,31,11.30
2017,05,23,10,32,9.60
2017,05,23,10,33,11.30
2017,05,23,10,34,9.60
2017,05,23,10,35,11.30
2017,05,23,10,36,11.30
2017,05,23,10,37,9.60
2017,05,23,10,38,8.10
2017,05,23,10,39,8.10
2017,05,23,10,40,12.90
2017,05,23,10,41,14.50
2017,05,23,10,42,11.30
2017,05,23,10,43,11.30
2017,05,23,10,44,9.60
2017,05,23,10,45,8.10
2017,05,23,10,46,8.10
2017,05,23,10,47,8.10
2017,05,23,10,48,8.10
2017,05,23,10,49,6.40
2017,05,23,10,50,1.60
2017,05,23,10,51,4.80
2017,05,23,10,52,4.80
2017,05,23,10,53,3.20
2017,05,23,10,54,6.40
2017,05,23,10,55,6.40
2017,05,23,10,56,6.40
2017,05,23,10,57,8.10
2017,05,23,10,58,11.30
2017,05,23,10,59,8.10
2017,05,23,11,00,6.40
2017,05,23,11,01,8.10
2017,05,23,11,02,4.80
2017,05,23,11,03,4.80
2017,05,23,11,04,3.20
2017,05,23,11,05,6.40
2017,05,23,11,06,6.40
2017,05,23,11,07,6.40
2017,05,23,11,08,8.10
2017,05,23,11,09,6.40
2017,05,23,11,10,9.60
2017,05,23,11,11,6.40
2017,05,23,11,12,4.80
2017,05,23,11,13,6.40
2017,05,23,11,14,8.10
2017,05,23,11,15,6.40
2017,05,23,11,16,8.10
2017,05,23,11,17,11.30
2017,05,23,11,18,11.30
2017,05,23,11,19,9.60
2017,05,23,11,20,12.90
2017,05,23,11,21,8.10
2017,05,23,11,22,6.40
2017,05,23,11,23,11.30
2017,05,23,11,24,11.30
2017,05,23,11,25,9.60
2017,05,23,11,26,8.10
2017,05,23,11,27,9.60
2017,05,23,11,28,4.80
2017,05,23,11,29,8.10
2017,05,23,11,30,9.60
2017,05,23,11,31,9.60
2017,05,23,11,32,6.40
2017,05,23,11,33,4.80
2017,05,23,11,34,4.80
2017,05,23,11,35,6.40
2017,05,23,11,36,8.10
2017,05,23,11,37,6.40
2017,05,23,11,38,11.30
2017,05,23,11,39,8.10
2017,05,23,11,40,9.60
2017,05,23,11,41,6.40
2017,05,23,11,42,9.60
2017,05,23,11,43,8.10
2017,05,23,11,44,6.40
2017,05,23,11,45,6.40
2017,05,23,11,46,3.20
2017,05,23,11,47,4.80
2017,05,23,11,48,8.10
2017,05,23,11,49,9.60
2017,05,23,11,50,8.10
2017,05,23,11,51,9.60
2017,05,23,11,52,6.40
2017,05,23,11,53,8.10
2017,05,23,11,54,8.10
2017,05,23,11,55,8.10
2017,05,23,11,56,4.80
2017,05,23,11,57,8.10
2017,05,23,11,58,8.10
2017,05,23,11,59,4.80
2017,05,23,12,00,6.40
2017,05,23,12,01,8.10
2017,05,23,12,02,6.40
2017,05,23,12,03,9.60
2017,05,23,12,04,9.60
2017,05,23,12,05,8.10
2017,05,23,12,06,6.40
2017,05,23,12,07,6.40
2017,05,23,12,08,6.40
2017,05,23,12,09,4.80
2017,05,23,12,10,8.10
2017,05,23,12,11,8.10
2017,05,23,12,12,8.10
2017,05,23,12,13,6.40
2017,05,23,12,14,6.40
2017,05,23,12,15,8.10
2017,05,23,12,16,9.60
2017,05,23,12,17,9.60
2017,05,23,12,18,9.60
2017,05,23,12,19,11.30
2017,05,23,12,20,9.60
2017,05,23,12,21,8.10
2017,05,23,12,22,8.10
2017,05,23,12,23,9.60
2017,05,23,12,24,11.30
2017,05,23,12,25,14.50
2017,05,23,12,26,14.50
2017,05,23,12,27,11.30
2017,05,23,12,28,14.50
2017,05,23,12,29,6.40
2017,05,23,12,30,6.40
2017,05,23,12,31,8.10
2017,05,23,12,32,8.10
2017,05,23,12,33,14.50
2017,05,23,12,34,8.10
2017,05,23,12,35,11.30
2017,05,23,12,36,9.60
2017,05,23,12,37,11.30
2017,05,23,12,38,9.60
2017,05,23,12,39,14.50
2017,05,23,12,40,6.40
2017,05,23,12,41,6.40
2017,05,23,12,42,8.10
2017,05,23,12,43,9.60
2017,05,23,12,44,11.30
2017,05,23,12,45,9.60
2017,05,23,12,46,11.30
2017,05,23,12,47,11.30
2017,05,23,12,48,8.10
2017,05,23,12,49,8.10
2017,05,23,12,50,6.40
2017,05,23,12,51,4.80
2017,05,23,12,52,4.80
2017,05,23,12,53,9.60
2017,05,23,12,54,8.10
2017,05,23,12,55,6.40
2017,05,23,12,56,6.40
2017,05,23,12,57,8.10
2017,05,23,12,58,8.10
2017,05,23,12,59,8.10
2017,05,23,13,00,11.30
2017,05,23,13,01,6.40
2017,05,23,13,02,8.10
2017,05,23,13,03,6.40
2017,05,23,13,04,6.40
2017,05,23,13,05,8.10
2017,05,23,13,06,8.10
2017,05,23,13,07,9.60
2017,05,23,13,08,9.60
2017,05,23,13,09,9.60
2017,05,23,13,10,9.60
2017,05,23,13,11,6.40
2017,05,23,13,12,6.40
2017,05,23,13,13,4.80
2017,05,23,13,14,6.40
2017,05,23,13,15,4.80
2017,05,23,13,16,6.40
2017,05,23,13,17,6.40
2017,05,23,13,18,3.20
2017,05,23,13,19,3.20
2017,05,23,13,20,1.60
2017,05,23,13,21,8.10
2017,05,23,13,22,6.40
2017,05,23,13,23,6.40
2017,05,23,13,24,6.40
2017,05,23,13,25,4.80
2017,05,23,13,26,6.40
2017,05,23,13,27,6.40
2017,05,23,13,28,4.80
2017,05,23,13,29,8.10
2017,05,23,13,30,8.10
2017,05,23,13,31,6.40
2017,05,23,13,32,6.40
2017,05,23,13,33,8.10
2017,05,23,13,34,8.10
2017,05,23,13,35,8.10
2017,05,23,13,36,6.40
2017,05,23,13,37,9.60
2017,05,23,13,38,11.30
2017,05,23,13,39,11.30
2017,05,23,13,40,9.60
2017,05,23,13,41,11.30
2017,05,23,13,42,8.10
2017,05,23,13,43,9.60
2017,05,23,13,44,8.10
2017,05,23,13,45,14.50
2017,05,23,13,46,24.20
2017,05,23,13,47,11.30
2017,05,23,13,48,4.80
2017,05,23,13,49,4.80
2017,05,23,13,50,20.90
2017,05,23,13,51,30.60
2017,05,23,13,52,19.30
2017,05,23,13,53,22.50
2017,05,23,13,54,29.00
2017,05,23,13,55,27.40
2017,05,23,13,56,24.20
2017,05,23,13,57,17.70
2017,05,23,13,58,17.70
2017,05,23,13,59,29.00
2017,05,23,14,00,27.40
2017,05,23,14,01,32.20
2017,05,23,14,02,27.40
2017,05,23,14,03,24.20
2017,05,23,14,04,24.20
2017,05,23,14,05,27.40
2017,05,23,14,06,40.20
2017,05,23,14,07,38.60
2017,05,23,14,08,29.00
2017,05,23,14,09,25.70
2017,05,23,14,10,25.70
2017,05,23,14,11,24.20
2017,05,23,14,12,33.80
2017,05,23,14,13,33.80
2017,05,23,14,14,33.80
2017,05,23,14,15,38.60
2017,05,23,14,16,29.00
2017,05,23,14,17,29.00
2017,05,23,14,18,19.30
2017,05,23,14,19,25.70
2017,05,23,14,20,32.20
2017,05,23,14,21,29.00
2017,05,23,14,22,30.60
2017,05,23,14,23,22.50
2017,05,23,14,24,25.70
2017,05,23,14,25,24.20
2017,05,23,14,26,30.60
2017,05,23,14,27,19.30
2017,05,23,14,28,25.70
2017,05,23,14,29,19.30
2017,05,23,14,30,30.60
2017,05,23,14,31,19.30
2017,05,23,14,32,20.90
2017,05,23,14,33,27.40
2017,05,23,14,34,29.00
2017,05,23,14,35,25.70
2017,05,23,14,36,20.90
2017,05,23,14,37,25.70
2017,05,23,14,38,22.50
2017,05,23,14,39,16.10
2017,05,23,14,40,14.50
2017,05,23,14,41,22.50
2017,05,23,14,42,30.60
2017,05,23,14,43,16.10
2017,05,23,14,44,20.90
2017,05,23,14,45,33.80
2017,05,23,14,46,35.40
2017,05,23,14,47,29.00
2017,05,23,14,48,37.00
2017,05,23,14,49,27.40
2017,05,23,14,50,32.20
2017,05,23,14,51,29.00
2017,05,23,14,52,24.20
2017,05,23,14,53,29.00
2017,05,23,14,54,24.20
2017,05,23,14,55,24.20
2017,05,23,14,56,19.30
2017,05,23,14,57,20.90
2017,05,23,14,58,20.90
2017,05,23,14,59,20.90
2017,05,23,15,00,20.90
2017,05,23,15,01,19.30
2017,05,23,15,02,24.20
2017,05,23,15,03,32.20
2017,05,23,15,04,20.90
2017,05,23,15,05,24.20
2017,05,23,15,06,22.50
2017,05,23,15,07,22.50
2017,05,23,15,08,19.30
2017,05,23,15,09,25.70
2017,05,23,15,10,27.40
2017,05,23,15,11,25.70
2017,05,23,15,12,20.90
2017,05,23,15,13,16.10
2017,05,23,15,14,20.90
2017,05,23,15,15,17.70
2017,05,23,15,16,19.30
2017,05,23,15,17,25.70
2017,05,23,15,18,20.90
2017,05,23,15,19,22.50
2017,05,23,15,20,20.90
2017,05,23,15,21,9.60
2017,05,23,15,22,16.10
2017,05,23,15,23,24.20
2017,05,23,15,24,19.30
2017,05,23,15,25,20.90
2017,05,23,15,26,25.70
2017,05,23,15,27,19.30
2017,05,23,15,28,17.70
2017,05,23,15,29,12.90
2017,05,23,15,30,17.70
2017,05,23,15,31,22.50
2017,05,23,15,32,27.40
2017,05,23,15,33,19.30
2017,05,23,15,34,33.80
2017,05,23,15,35,24.20
2017,05,23,15,36,27.40
2017,05,23,15,37,20.90
2017,05,23,15,38,19.30
2017,05,23,15,39,25.70
2017,05,23,15,40,22.50
2017,05,23,15,41,25.70
2017,05,23,15,42,29.00
2017,05,23,15,43,29.00
2017,05,23,15,44,25.70
2017,05,23,15,45,27.40
2017,05,23,15,46,25.70
2017,05,23,15,47,24.20
2017,05,23,15,48,22.50
2017,05,23,15,49,30.60
2017,05,23,15,50,24.20
2017,05,23,15,51,24.20
2017,05,23,15,52,27.40
2017,05,23,15,53,17.70
2017,05,23,15,54,30.60
2017,05,23,15,55,30.60
2017,05,23,15,56,22.50
2017,05,23,15,57,29.00
2017,05,23,15,58,16.10
2017,05,23,15,59,14.50
2017,05,23,16,00,20.90
2017,05,23,16,01,24.20
2017,05,23,16,02,29.00
2017,05,23,16,03,22.50
2017,05,23,16,04,33.80
2017,05,23,16,05,25.70
2017,05,23,16,06,33.80
2017,05,23,16,07,29.00
2017,05,23,16,08,27.40
2017,05,23,16,09,25.70
2017,05,23,16,10,19.30
2017,05,23,16,11,20.90
2017,05,23,16,12,35.40
2017,05,23,16,13,30.60
2017,05,23,16,14,25.70
2017,05,23,16,15,27.40
2017,05,23,16,16,37.00
2017,05,23,16,17,32.20
2017,05,23,16,18,24.20
2017,05,23,16,19,22.50
2017,05,23,16,20,20.90
2017,05,23,16,21,19.30
2017,05,23,16,22,29.00
2017,05,23,16,23,27.40
2017,05,23,16,24,29.00
2017,05,23,16,25,27.40
2017,05,23,16,26,35.40
2017,05,23,16,27,25.70
2017,05,23,16,28,20.90
2017,05,23,16,29,27.40
2017,05,23,16,30,32.20
2017,05,23,16,31,32.20
2017,05,23,16,32,24.20
2017,05,23,16,33,30.60
2017,05,23,16,34,37.00
2017,05,23,16,35,29.00
2017,05,23,16,36,27.40
2017,05,23,16,37,30.60
2017,05,23,16,38,32.20
2017,05,23,16,39,24.20
2017,05,23,16,40,22.50
2017,05,23,16,41,20.90
2017,05,23,16,42,32.20
2017,05,23,16,43,30.60
2017,05,23,16,44,27.40
2017,05,23,16,45,22.50
2017,05,23,16,46,24.20
2017,05,23,16,47,22.50
2017,05,23,16,48,24.20
2017,05,23,16,49,24.20
2017,05,23,16,50,30.60
2017,05,23,16,51,24.20
2017,05,23,16,52,20.90
2017,05,23,16,53,24.20
2017,05,23,16,54,24.20
2017,05,23,16,55,29.00
2017,05,23,16,56,29.00
2017,05,23,16,57,35.40
2017,05,23,16,58,29.00
2017,05,23,16,59,16.10
2017,05,23,17,00,16.10
2017,05,23,17,01,11.30
2017,05,23,17,02,14.50
2017,05,23,17,03,27.40
2017,05,23,17,04,29.00
2017,05,23,17,05,22.50
2017,05,23,17,06,25.70
2017,05,23,17,07,20.90
2017,05,23,17,08,22.50
2017,05,23,17,09,24.20
2017,05,23,17,10,22.50
2017,05,23,17,11,27.40
2017,05,23,17,12,22.50
2017,05,23,17,13,25.70
2017,05,23,17,14,29.00
2017,05,23,17,15,27.40
2017,05,23,17,16,33.80
2017,05,23,17,17,30.60
2017,05,23,17,18,45.10
2017,05,23,17,19,32.20
2017,05,23,17,20,20.90
2017,05,23,17,21,29.00
2017,05,23,17,22,19.30
2017,05,23,17,23,25.70
2017,05,23,17,24,20.90
2017,05,23,17,25,24.20
2017,05,23,17,26,24.20
2017,05,23,17,27,30.60
2017,05,23,17,28,27.40
2017,05,23,17,29,29.00
2017,05,23,17,30,19.30
2017,05,23,17,31,32.20
2017,05,23,17,32,29.00
2017,05,23,17,33,22.50
2017,05,23,17,34,29.00
2017,05,23,17,35,35.40
2017,05,23,17,36,33.80
2017,05,23,17,37,43.50
2017,05,23,17,38,41.80
2017,05,23,17,39,27.40
2017,05,23,17,40,40.20
2017,05,23,17,41,38.60
2017,05,23,17,42,30.60
2017,05,23,17,43,22.50
2017,05,23,17,44,33.80
2017,05,23,17,45,33.80
2017,05,23,17,46,27.40
2017,05,23,17,47,38.60
2017,05,23,17,48,37.00
2017,05,23,17,49,38.60
2017,05,23,17,50,40.20
2017,05,23,17,51,43.50
2017,05,23,17,52,37.00
2017,05,23,17,53,37.00
2017,05,23,17,54,30.60
2017,05,23,17,55,32.20
2017,05,23,17,56,29.00
2017,05,23,17,57,29.00
2017,05,23,17,58,29.00
2017,05,23,17,59,24.20
2017,05,23,18,00,25.70
2017,05,23,18,01,29.00
2017,05,23,18,02,30.60
2017,05,23,18,03,30.60
2017,05,23,18,04,24.20
2017,05,23,18,05,22.50
2017,05,23,18,06,30.60
2017,05,23,18,07,25.70
2017,05,23,18,08,24.20
2017,05,23,18,09,30.60
2017,05,23,18,10,45.10
2017,05,23,18,11,33.80
2017,05,23,18,12,19.30
2017,05,23,18,13,19.30
2017,05,23,18,14,29.00
2017,05,23,18,15,29.00
2017,05,23,18,16,30.60
2017,05,23,18,17,40.20
2017,05,23,18,18,30.60
2017,05,23,18,19,37.00
2017,05,23,18,20,22.50
2017,05,23,18,21,25.70
2017,05,23,18,22,24.20
2017,05,23,18,23,25.70
2017,05,23,18,24,20.90
2017,05,23,18,25,30.60
2017,05,23,18,26,41.80
2017,05,23,18,27,30.60
2017,05,23,18,28,35.40
2017,05,23,18,29,30.60
2017,05,23,18,30,27.40
2017,05,23,18,31,40.20
2017,05,23,18,32,27.40
2017,05,23,18,33,19.30
2017,05,23,18,34,25.70
2017,05,23,18,35,29.00
2017,05,23,18,36,30.60
2017,05,23,18,37,33.80
2017,05,23,18,38,25.70
2017,05,23,18,39,33.80
2017,05,23,18,40,32.20
2017,05,23,18,41,38.60
2017,05,23,18,42,38.60
2017,05,23,18,43,32.20
2017,05,23,18,44,41.80
2017,05,23,18,45,37.00
2017,05,23,18,46,33.80
2017,05,23,18,47,29.00
2017,05,23,18,48,24.20
2017,05,23,18,49,37.00
2017,05,23,18,50,20.90
2017,05,23,18,51,16.10
2017,05,23,18,52,45.10
2017,05,23,18,53,32.20
2017,05,23,18,54,24.20
2017,05,23,18,55,32.20
2017,05,23,18,56,35.40
2017,05,23,18,57,25.70
2017,05,23,18,58,40.20
2017,05,23,18,59,33.80
2017,05,23,19,00,24.20
2017,05,23,19,01,25.70
2017,05,23,19,02,35.40
2017,05,23,19,03,29.00
2017,05,23,19,04,24.20
2017,05,23,19,05,33.80
2017,05,23,19,06,35.40
2017,05,23,19,07,32.20
2017,05,23,19,08,27.40
2017,05,23,19,09,30.60
2017,05,23,19,10,27.40
2017,05,23,19,11,16.10
2017,05,23,19,12,22.50
2017,05,23,19,13,45.10
2017,05,23,19,14,24.20
2017,05,23,19,15,22.50
2017,05,23,19,16,30.60
2017,05,23,19,17,22.50
2017,05,23,19,18,40.20
2017,05,23,19,19,29.00
2017,05,23,19,20,20.90
2017,05,23,19,21,30.60
2017,05,23,19,22,30.60
2017,05,23,19,23,27.40
2017,05,23,19,24,19.30
2017,05,23,19,25,32.20
2017,05,23,19,26,24.20
2017,05,23,19,27,35.40
2017,05,23,19,28,19.30
2017,05,23,19,29,30.60
2017,05,23,19,30,35.40
2017,05,23,19,31,30.60
2017,05,23,19,32,25.70
2017,05,23,19,33,19.30
2017,05,23,19,34,37.00
2017,05,23,19,35,48.30
2017,05,23,19,36,30.60
2017,05,23,19,37,33.80
2017,05,23,19,38,41.80
2017,05,23,19,39,41.80
2017,05,23,19,40,30.60
2017,05,23,19,41,27.40
2017,05,23,19,42,30.60
2017,05,23,19,43,45.10
2017,05,23,19,44,38.60
2017,05,23,19,45,38.60
2017,05,23,19,46,30.60
2017,05,23,19,47,38.60
2017,05,23,19,48,37.00
2017,05,23,19,49,27.40
2017,05,23,19,50,25.70
2017,05,23,19,51,32.20
2017,05,23,19,52,41.80
2017,05,23,19,53,25.70
2017,05,23,19,54,25.70
2017,05,23,19,55,25.70
2017,05,23,19,56,27.40
2017,05,23,19,57,33.80
2017,05,23,19,58,29.00
2017,05,23,19,59,24.20
2017,05,23,20,00,19.30
2017,05,23,20,01,32.20
2017,05,23,20,02,30.60
2017,05,23,20,03,51.50
2017,05,23,20,04,38.60
2017,05,23,20,05,30.60
2017,05,23,20,06,35.40
2017,05,23,20,07,25.70
2017,05,23,20,08,25.70
2017,05,23,20,09,25.70